When you browse on this site, cookies collect data to enhance your experience and personalize the content and advertising you see.
Visit our Privacy Policy to learn more. By continuing to use the site, you agree to this use of cookies and data.

Hourly Weather Jacala

Today, 5 August, Wednesday

Time Temperature Precipitation Wind Pressure Humidity
00:00 +16°C° 0 mm 0 mps 633 mmHg 95%
01:00 +16°C° 0 mm 0 mps 633 mmHg 95%
02:00 +15°C° 0 mm 0 mps 632 mmHg 94%
03:00 +15°C° 0 mm 0 mps 632 mmHg 94%
04:00 +15°C° 0 mm 0 mps 632 mmHg 94%
05:00 +15°C° 0 mm 0 mps 632 mmHg 94%
06:00 +17°C° 0 mm 0 mps 633 mmHg 86%
07:00 +19°C° 0 mm 0 mps 634 mmHg 78%
08:00 +21°C° 0 mm 0 mps 635 mmHg 69%
09:00 +25°C° 0 mm 1 mps 635 mmHg 63%
10:00 +26°C° 0 mm 2 mps 636 mmHg 56%
11:00 +27°C° 0 mm 2 mps 636 mmHg 49%
12:00 +27°C° 0.1 mm 3 mps 635 mmHg 52%
13:00 +27°C° 0.1 mm 3 mps 634 mmHg 55%
14:00 +27°C° 0.1 mm 3 mps 634 mmHg 58%
15:00 +25°C° 0.4 mm 3 mps 633 mmHg 65%
16:00 +24°C° 0.4 mm 3 mps 633 mmHg 72%
17:00 +23°C° 0.4 mm 2 mps 632 mmHg 79%
18:00 +20°C° 0.1 mm 2 mps 632 mmHg 85%
19:00 +20°C° 0.1 mm 1 mps 632 mmHg 91%
20:00 +18°C° 0.1 mm 1 mps 633 mmHg 97%
21:00 +16°C° 0 mm 0 mps 633 mmHg 96%
22:00 +16°C° 0 mm 0 mps 633 mmHg 96%
23:00 +16°C° 0 mm 0 mps 633 mmHg 96%

Tomorrow, 6 August, Thursday

Time Temperature Precipitation Wind Pressure Humidity
00:00 +16°C° 0 mm 0 mps 632 mmHg 95%
01:00 +16°C° 0 mm 0 mps 632 mmHg 95%
02:00 +16°C° 0 mm 0 mps 632 mmHg 94%
03:00 +15°C° 0 mm 0 mps 632 mmHg 94%
04:00 +15°C° 0 mm 0 mps 632 mmHg 94%
05:00 +15°C° 0 mm 0 mps 632 mmHg 94%
06:00 +17°C° 0 mm 0 mps 633 mmHg 88%
07:00 +19°C° 0 mm 0 mps 633 mmHg 82%
08:00 +20°C° 0 mm 0 mps 634 mmHg 76%
09:00 +24°C° 0.1 mm 1 mps 634 mmHg 71%
10:00 +25°C° 0.1 mm 1 mps 635 mmHg 66%
11:00 +26°C° 0.1 mm 2 mps 635 mmHg 60%
12:00 +26°C° 0.3 mm 2 mps 634 mmHg 62%
13:00 +26°C° 0.3 mm 2 mps 634 mmHg 63%
14:00 +26°C° 0.3 mm 3 mps 633 mmHg 65%
15:00 +25°C° 0.3 mm 2 mps 633 mmHg 71%
16:00 +23°C° 0.3 mm 2 mps 632 mmHg 76%
17:00 +21°C° 0.3 mm 2 mps 632 mmHg 82%
18:00 +20°C° 0.2 mm 2 mps 632 mmHg 87%
19:00 +20°C° 0.2 mm 1 mps 632 mmHg 92%
20:00 +18°C° 0.2 mm 1 mps 633 mmHg 97%
21:00 +18°C° 0.2 mm 1 mps 633 mmHg 97%
22:00 +16°C° 0.2 mm 0 mps 633 mmHg 97%
23:00 +16°C° 0.2 mm 0 mps 633 mmHg 96%

Day after tomorrow, 7 August, Friday

Time Temperature Precipitation Wind Pressure Humidity
00:00 +16°C° 0.1 mm 0 mps 633 mmHg 96%
01:00 +16°C° 0.1 mm 0 mps 632 mmHg 96%
02:00 +16°C° 0.1 mm 0 mps 632 mmHg 96%
03:00 +15°C° 0 mm 0 mps 632 mmHg 96%
04:00 +15°C° 0 mm 0 mps 632 mmHg 95%
05:00 +15°C° 0 mm 0 mps 632 mmHg 95%
06:00 +17°C° 0 mm 0 mps 633 mmHg 88%
07:00 +20°C° 0 mm 1 mps 634 mmHg 82%
08:00 +22°C° 0 mm 1 mps 634 mmHg 75%
09:00 +23°C° 0.1 mm 1 mps 635 mmHg 70%
10:00 +25°C° 0.1 mm 1 mps 635 mmHg 65%
11:00 +26°C° 0.1 mm 2 mps 635 mmHg 60%
12:00 +25°C° 1.5 mm 2 mps 634 mmHg 65%
13:00 +25°C° 1.5 mm 2 mps 633 mmHg 71%
14:00 +24°C° 1.5 mm 3 mps 632 mmHg 76%
15:00 +23°C° 0.7 mm 2 mps 632 mmHg 80%
16:00 +21°C° 0.7 mm 2 mps 632 mmHg 83%
17:00 +21°C° 0.7 mm 2 mps 632 mmHg 87%
18:00 +20°C° 0.7 mm 2 mps 632 mmHg 90%
19:00 +19°C° 0.7 mm 1 mps 633 mmHg 93%
20:00 +18°C° 0.7 mm 1 mps 633 mmHg 97%
21:00 +18°C° 0.1 mm 1 mps 633 mmHg 97%
22:00 +18°C° 0.1 mm 1 mps 633 mmHg 96%
23:00 +16°C° 0.1 mm 0 mps 634 mmHg 96%

8 August, Saturday

Time Temperature Precipitation Wind Pressure Humidity
00:00 +15°C° 0 mm 0 mps 633 mmHg 96%
01:00 +15°C° 0 mm 0 mps 633 mmHg 95%
02:00 +15°C° 0 mm 0 mps 632 mmHg 95%
03:00 +15°C° 0 mm 0 mps 633 mmHg 95%
04:00 +15°C° 0 mm 0 mps 633 mmHg 95%
05:00 +15°C° 0 mm 0 mps 633 mmHg 95%
06:00 +16°C° 0 mm 0 mps 634 mmHg 90%
07:00 +20°C° 0 mm 1 mps 634 mmHg 85%
08:00 +21°C° 0 mm 1 mps 635 mmHg 80%
09:00 +23°C° 0 mm 1 mps 635 mmHg 72%
10:00 +24°C° 0 mm 2 mps 635 mmHg 63%
11:00 +25°C° 0 mm 2 mps 636 mmHg 55%
12:00 +25°C° 0.2 mm 3 mps 635 mmHg 58%
13:00 +25°C° 0.2 mm 3 mps 635 mmHg 61%
14:00 +25°C° 0.2 mm 3 mps 634 mmHg 63%
15:00 +22°C° 0.5 mm 3 mps 634 mmHg 70%
16:00 +21°C° 0.5 mm 3 mps 633 mmHg 77%
17:00 +20°C° 0.5 mm 2 mps 633 mmHg 83%
18:00 +19°C° 0.1 mm 2 mps 633 mmHg 87%
19:00 +19°C° 0.1 mm 1 mps 634 mmHg 92%
20:00 +16°C° 0.1 mm 1 mps 634 mmHg 96%
21:00 +16°C° 0 mm 1 mps 634 mmHg 95%
22:00 +16°C° 0 mm 1 mps 634 mmHg 95%
23:00 +15°C° 0 mm 0 mps 634 mmHg 95%

9 August, Sunday

Time Temperature Precipitation Wind Pressure Humidity
00:00 +15°C° 0 mm 0 mps 634 mmHg 95%
01:00 +14°C° 0 mm 0 mps 633 mmHg 94%
02:00 +14°C° 0 mm 0 mps 633 mmHg 94%
03:00 +14°C° 0 mm 0 mps 633 mmHg 94%
04:00 +14°C° 0 mm 0 mps 633 mmHg 94%
05:00 +14°C° 0 mm 0 mps 633 mmHg 94%
06:00 +15°C° 0 mm 0 mps 634 mmHg 89%
07:00 +18°C° 0 mm 1 mps 634 mmHg 84%
08:00 +20°C° 0 mm 1 mps 635 mmHg 79%
09:00 +21°C° 0 mm 1 mps 635 mmHg 73%
10:00 +22°C° 0 mm 1 mps 635 mmHg 66%
11:00 +24°C° 0 mm 2 mps 635 mmHg 60%
12:00 +24°C° 0.1 mm 2 mps 635 mmHg 61%
13:00 +24°C° 0.1 mm 2 mps 634 mmHg 62%
14:00 +24°C° 0.1 mm 2 mps 634 mmHg 64%
15:00 +23°C° 0.2 mm 2 mps 633 mmHg 69%
16:00 +21°C° 0.2 mm 2 mps 633 mmHg 75%
17:00 +20°C° 0.2 mm 2 mps 633 mmHg 80%
18:00 +20°C° 0.1 mm 1 mps 633 mmHg 85%
19:00 +19°C° 0.1 mm 1 mps 633 mmHg 90%
20:00 +18°C° 0.1 mm 1 mps 633 mmHg 96%
21:00 +16°C° 0 mm 0 mps 634 mmHg 96%
22:00 +16°C° 0 mm 0 mps 634 mmHg 96%
23:00 +16°C° 0 mm 0 mps 634 mmHg 96%

10 August, Monday

Time Temperature Precipitation Wind Pressure Humidity
00:00 +15°C° 0 mm 0 mps 633 mmHg 95%
01:00 +15°C° 0 mm 0 mps 633 mmHg 95%
02:00 +15°C° 0 mm 0 mps 633 mmHg 95%
03:00 +15°C° 0 mm 0 mps 633 mmHg 95%
04:00 +15°C° 0 mm 0 mps 632 mmHg 95%
05:00 +15°C° 0 mm 0 mps 632 mmHg 95%
06:00 +16°C° 0 mm 0 mps 633 mmHg 91%
07:00 +17°C° 0 mm 0 mps 634 mmHg 87%
08:00 +20°C° 0 mm 1 mps 634 mmHg 83%
09:00 +22°C° 0 mm 1 mps 635 mmHg 74%
10:00 +23°C° 0 mm 1 mps 635 mmHg 66%
11:00 +25°C° 0 mm 1 mps 635 mmHg 57%
12:00 +25°C° 0 mm 2 mps 634 mmHg 57%
13:00 +25°C° 0 mm 2 mps 634 mmHg 57%
14:00 +25°C° 0 mm 3 mps 633 mmHg 56%
15:00 +24°C° 0.3 mm 3 mps 633 mmHg 66%
16:00 +21°C° 0.3 mm 2 mps 632 mmHg 75%
17:00 +20°C° 0.3 mm 2 mps 632 mmHg 84%
18:00 +20°C° 0.1 mm 1 mps 632 mmHg 88%
19:00 +19°C° 0.1 mm 1 mps 632 mmHg 91%
20:00 +18°C° 0.1 mm 1 mps 632 mmHg 95%
21:00 +18°C° 0 mm 1 mps 632 mmHg 94%
22:00 +16°C° 0 mm 0 mps 633 mmHg 94%
23:00 +15°C° 0 mm 0 mps 633 mmHg 94%
Show more